Weather History for Thermopolis, WY

Change the Weather History Date:

Thursday, May 23, 2013

  Actual Average (KWRL) Record (KWRL)
Temperature  
Mean Temperature 52 °F 58 °F  
Max Temperature 64 °F 72 °F 91 °F (1967)
Min Temperature 41 °F 43 °F 30 °F (1966)
Degree Days  
Heating Degree Days 12 8  
Month to date heating degree days 255  
Since 1 July heating degree days 7722  
Cooling Degree Days 0 0  
Month to date cooling degree days 0  
Year to date cooling degree days 1  
Growing Degree Days 2 (Base 50)    
Moisture  
Dew Point 39 °F    
Average Humidity 66    
Maximum Humidity 100    
Minimum Humidity 34    
Precipitation  
Precipitation 0.00 in 0.04 in 0.90 in (1996)
Month to date precipitation 1.03  
Year to date precipitation 2.77  
Sea Level Pressure  
Sea Level Pressure 29.96 in    
Wind  
Wind Speed 22 mph (ESE)    
Max Wind Speed 33 mph    
Max Gust Speed 46 mph    
Visibility 10 miles    
Events Fog    
T = Trace of Precipitation, MM = Missing Value Source: NWS Daily Summary

Daily Weather History Graph

Daily Weather History Graph

Search for Another Location

Airport:

Trip Planner

Search our weather history database for the weather conditions in past years. The results will help you decide how hot, cold, wet, or windy it might be!

Date:

Astronomy

May. 23, 2013 Rise Set
Actual Time 5:40 AM MDT 8:39 PM MDT
Civil Twilight 5:06 AM MDT 9:13 PM MDT
Nautical Twilight 4:23 AM MDT 9:56 PM MDT
Astronomical Twilight 3:32 AM MDT 10:48 PM MDT
Moon 7:13 PM MDT (5/23) 4:30 AM MDT (5/23)
Length of Visible Light 16h 06m
Length of Day
14h 58m
Waxing Gibbous, 97% of the Moon is Illuminated
May 23
Waxing Gibbous
May 24
Full
May 31
Last Quarter
Jun 8
New
Jun 16
First Quarter

Hourly Weather History & Observations

Time (MDT) Temp. Windchill Dew Point Humidity Pressure Visibility Wind Dir Wind Speed Gust Speed Precip Events Conditions
12:15 AM 50.0 °F - 37.4 °F 62% 30.04 in 10.0 mi ESE 11.5 mph 24.2 mph N/A   Overcast
12:35 AM 50.0 °F - 37.4 °F 62% 30.04 in 10.0 mi ESE 10.4 mph 20.7 mph N/A   Mostly Cloudy
12:55 AM 46.4 °F 42.4 °F 37.4 °F 71% 30.05 in 10.0 mi ESE 8.1 mph - N/A   Overcast
1:15 AM 46.4 °F 41.1 °F 37.4 °F 71% 30.04 in 10.0 mi East 11.5 mph - N/A   Overcast
1:35 AM 46.4 °F 38.5 °F 37.4 °F 71% 30.03 in 10.0 mi East 21.9 mph 26.5 mph N/A   Scattered Clouds
1:55 AM 42.8 °F 35.4 °F 39.2 °F 87% 30.02 in 10.0 mi ESE 15.0 mph - N/A   Scattered Clouds
2:15 AM 42.8 °F 34.5 °F 39.2 °F 87% 30.00 in 10.0 mi ESE 18.4 mph - N/A   Scattered Clouds
2:35 AM 42.8 °F 35.4 °F 39.2 °F 87% 30.00 in 10.0 mi ESE 15.0 mph - N/A   Scattered Clouds
2:55 AM 42.8 °F 32.7 °F 37.4 °F 81% 29.99 in 10.0 mi ESE 27.6 mph - N/A   Mostly Cloudy
3:15 AM 42.8 °F 34.3 °F 37.4 °F 81% 30.00 in 10.0 mi ESE 19.6 mph 26.5 mph N/A   Scattered Clouds
3:35 AM 42.8 °F 33.8 °F 37.4 °F 81% 30.00 in 10.0 mi East 21.9 mph 33.4 mph N/A   Clear
3:55 AM 44.6 °F 35.7 °F 37.4 °F 76% 30.01 in 10.0 mi East 24.2 mph 29.9 mph N/A   Scattered Clouds
4:15 AM 42.8 °F 32.9 °F 37.4 °F 81% 30.01 in 10.0 mi East 26.5 mph 33.4 mph N/A   Scattered Clouds
4:35 AM 42.8 °F 33.5 °F 37.4 °F 81% 30.01 in 10.0 mi East 23.0 mph 35.7 mph N/A   Scattered Clouds
4:55 AM 42.8 °F 32.7 °F 37.4 °F 81% 30.00 in 10.0 mi East 27.6 mph 35.7 mph N/A   Scattered Clouds
5:15 AM 42.8 °F 32.3 °F 37.4 °F 81% 30.00 in 10.0 mi East 29.9 mph 36.8 mph N/A   Scattered Clouds
5:35 AM 42.8 °F 32.3 °F 37.4 °F 81% 30.00 in 10.0 mi East 29.9 mph 39.1 mph N/A   Scattered Clouds
5:55 AM 41.0 °F 29.3 °F 37.4 °F 87% 29.99 in 10.0 mi East 33.4 mph 38.0 mph N/A   Mostly Cloudy
6:15 AM 41.0 °F 30.7 °F 37.4 °F 87% 30.01 in 10.0 mi East 25.3 mph 32.2 mph N/A   Mostly Cloudy
6:35 AM 41.0 °F 30.5 °F 37.4 °F 87% 30.01 in 10.0 mi East 26.5 mph 35.7 mph N/A   Overcast
6:55 AM 41.0 °F 30.5 °F 39.2 °F 93% 30.01 in 10.0 mi East 26.5 mph 29.9 mph N/A   Overcast
7:15 AM 42.8 °F 32.7 °F 37.4 °F 81% 30.01 in 10.0 mi ESE 27.6 mph 38.0 mph N/A   Overcast
7:35 AM 41.0 °F 29.5 °F 37.4 °F 87% 30.00 in 10.0 mi ESE 32.2 mph 40.3 mph N/A   Overcast
7:55 AM 42.8 °F 32.5 °F 39.2 °F 87% 30.01 in 10.0 mi ESE 28.8 mph 34.5 mph N/A   Overcast
8:15 AM 42.8 °F 32.1 °F 39.2 °F 87% 30.00 in 10.0 mi ESE 31.1 mph 35.7 mph N/A   Overcast
8:35 AM 42.8 °F 33.1 °F 39.2 °F 87% 30.01 in 10.0 mi ESE 25.3 mph 34.5 mph N/A   Overcast
8:55 AM 44.6 °F 34.6 °F 39.2 °F 81% 30.00 in 10.0 mi ESE 31.1 mph 38.0 mph N/A   Mostly Cloudy
9:15 AM 44.6 °F 34.4 °F 41.0 °F 87% 30.00 in 10.0 mi ESE 32.2 mph 38.0 mph N/A   Mostly Cloudy
9:35 AM 44.6 °F 35.1 °F 41.0 °F 87% 30.00 in 10.0 mi ESE 27.6 mph 32.2 mph N/A   Mostly Cloudy
9:55 AM 46.4 °F 37.2 °F 41.0 °F 81% 29.99 in 10.0 mi ESE 29.9 mph 34.5 mph N/A   Scattered Clouds
10:15 AM 46.4 °F 37.5 °F 41.0 °F 81% 30.00 in 10.0 mi ESE 27.6 mph 35.7 mph N/A   Scattered Clouds
10:35 AM 48.2 °F - 41.0 °F 76% 30.00 in 10.0 mi ESE 29.9 mph 35.7 mph N/A   Mostly Cloudy
10:55 AM 50.0 °F - 41.0 °F 71% 29.99 in 10.0 mi ESE 28.8 mph 34.5 mph N/A   Mostly Cloudy
11:15 AM 50.0 °F - 41.0 °F 71% 29.98 in 10.0 mi ESE 26.5 mph 35.7 mph N/A   Scattered Clouds
11:35 AM 51.8 °F - 42.8 °F 71% 29.98 in 10.0 mi ESE 28.8 mph 39.1 mph N/A   Scattered Clouds
11:55 AM 53.6 °F - 42.8 °F 67% 29.97 in 10.0 mi ESE 25.3 mph 38.0 mph N/A   Scattered Clouds
12:15 PM 55.4 °F - 42.8 °F 63% 29.96 in 10.0 mi SE 32.2 mph 39.1 mph N/A   Scattered Clouds
12:35 PM 55.4 °F - 42.8 °F 63% 29.97 in 10.0 mi SE 24.2 mph 33.4 mph N/A   Clear
12:55 PM 55.4 °F - 42.8 °F 63% 29.96 in 10.0 mi ESE 23.0 mph 29.9 mph N/A   Clear
1:15 PM 59.0 °F - 42.8 °F 55% 29.96 in 10.0 mi ESE 21.9 mph 27.6 mph N/A   Clear
1:35 PM 59.0 °F - 42.8 °F 55% 29.95 in 10.0 mi SE 27.6 mph 36.8 mph N/A   Clear
1:55 PM 60.8 °F - 42.8 °F 52% 29.95 in 10.0 mi ESE 20.7 mph 28.8 mph N/A   Clear
2:15 PM 62.6 °F - 41.0 °F 45% 29.92 in 10.0 mi ESE 32.2 mph 36.8 mph N/A   Clear
2:35 PM 64.4 °F - 37.4 °F 37% 29.92 in 10.0 mi ESE 31.1 mph 40.3 mph N/A   Clear
2:55 PM 64.4 °F - 35.6 °F 34% 29.92 in 10.0 mi ESE 26.5 mph 40.3 mph N/A   Scattered Clouds
3:15 PM 64.4 °F - 35.6 °F 34% 29.91 in 10.0 mi SE 31.1 mph 46.0 mph N/A   Mostly Cloudy
3:35 PM 64.4 °F - 35.6 °F 34% 29.90 in 10.0 mi ESE 29.9 mph 40.3 mph N/A   Overcast
3:55 PM 64.4 °F - 35.6 °F 34% 29.90 in 10.0 mi ESE 28.8 mph 40.3 mph N/A   Overcast
4:15 PM 64.4 °F - 37.4 °F 37% 29.90 in 10.0 mi ESE 26.5 mph 36.8 mph N/A   Overcast
4:35 PM 64.4 °F - 35.6 °F 34% 29.89 in 10.0 mi ESE 25.3 mph 39.1 mph N/A   Overcast
4:55 PM 64.4 °F - 35.6 °F 34% 29.89 in 10.0 mi ESE 28.8 mph 39.1 mph N/A   Overcast
5:15 PM 62.6 °F - 35.6 °F 37% 29.87 in 10.0 mi ESE 29.9 mph 39.1 mph N/A   Overcast
5:35 PM 62.6 °F - 35.6 °F 37% 29.88 in 10.0 mi ESE 28.8 mph 39.1 mph N/A   Mostly Cloudy
5:55 PM 62.6 °F - 37.4 °F 39% 29.88 in 10.0 mi ESE 24.2 mph 32.2 mph N/A   Scattered Clouds
6:15 PM 62.6 °F - 37.4 °F 39% 29.86 in 10.0 mi ESE 28.8 mph 36.8 mph N/A   Scattered Clouds
6:35 PM 62.6 °F - 37.4 °F 39% 29.87 in 10.0 mi ESE 24.2 mph 28.8 mph N/A   Scattered Clouds
6:55 PM 62.6 °F - 37.4 °F 39% 29.86 in 10.0 mi East 25.3 mph 36.8 mph N/A   Mostly Cloudy
7:15 PM 62.6 °F - 37.4 °F 39% 29.86 in 10.0 mi East 24.2 mph 36.8 mph N/A   Mostly Cloudy
7:35 PM 62.6 °F - 37.4 °F 39% 29.86 in 10.0 mi East 26.5 mph 41.4 mph N/A   Scattered Clouds
7:55 PM 60.8 °F - 39.2 °F 45% 29.86 in 10.0 mi East 24.2 mph 36.8 mph N/A   Scattered Clouds
8:15 PM 60.8 °F - 39.2 °F 45% 29.86 in 10.0 mi East 23.0 mph 34.5 mph N/A   Scattered Clouds
8:35 PM 60.8 °F - 37.4 °F 42% 29.86 in 10.0 mi East 24.2 mph 35.7 mph N/A   Mostly Cloudy
8:55 PM 59.0 °F - 39.2 °F 48% 29.88 in 10.0 mi East 21.9 mph 31.1 mph N/A   Scattered Clouds
9:15 PM 59.0 °F - 41.0 °F 51% 29.89 in 10.0 mi East 25.3 mph 32.2 mph N/A   Clear
9:35 PM 59.0 °F - 37.4 °F 45% 29.90 in 10.0 mi ENE 20.7 mph 29.9 mph N/A   Clear
9:55 PM 53.6 °F - 42.8 °F 67% 29.91 in 10.0 mi WNW 17.3 mph 23.0 mph N/A   Scattered Clouds
10:15 PM 50.0 °F - 44.6 °F 82% 29.93 in 10.0 mi WNW 17.3 mph - N/A   Scattered Clouds
10:35 PM 48.2 °F - 44.6 °F 87% 29.94 in 10.0 mi NW 16.1 mph - N/A   Clear
10:55 PM 48.2 °F - 44.6 °F 87% 29.94 in 10.0 mi NW 23.0 mph 27.6 mph N/A   Clear
11:15 PM 46.4 °F 37.9 °F 44.6 °F 93% 29.94 in 10.0 mi NW 25.3 mph - N/A   Clear
11:35 PM 44.6 °F 35.1 °F 42.8 °F 93% 29.93 in 10.0 mi NW 27.6 mph - N/A   Scattered Clouds
11:55 PM 44.6 °F 35.9 °F 44.6 °F 100% 29.94 in 0.5 mi NW 23.0 mph - N/A Fog Fog